Wind_Speed
18 18 17 17 17 16 16 16 16 16 15 14 14 14 14 13 12 11 11 10 10 9 9 8 8 7 7 6 6 6 6 5 5 4 4 4 3 3 3 2 2 1 1
19 19 18 18 18 18 17 17 17 17 16 16 15 15 15 15 14 13 12 12 11 10 10 10 9 8 8 7 7 7 6 6 6 6 5 5 4 4 4 3 3 2 1
21 21 20 19 19 19 19 18 18 18 17 17 16 16 16 15 15 14 14 13 12 11 11 10 10 10 9 9 8 8 8 7 7 7 7 6 6 5 5 5 4 3 3
22 22 22 21 20 20 20 19 19 19 18 18 16 16 16 16 16 15 15 15 14 13 12 12 11 11 11 10 9 9 9 9 9 8 8 8 8 7 6 6 6 5 4
23 23 22 22 22 21 21 20 20 20 19 19 18 18 17 17 17 17 16 16 15 14 14 13 13 12 12 11 11 11 10 10 10 10 9 9 9 8 8 7 7 7 6
24 24 23 23 23 22 22 21 21 21 20 20 19 19 19 18 18 19 18 17 16 16 15 15 14 13 13 13 12 12 12 11 11 11 11 11 10 10 9 9 8 8 8
26 25 24 24 24 24 23 22 22 22 21 21 20 20 20 19 19 19 19 18 18 17 17 16 16 16 15 15 14 14 14 14 13 13 13 12 12 12 11 11 10 10 9
26 26 26 25 25 25 24 24 24 23 22 22 22 22 21 21 20 20 21 20 20 19 19 18 18 18 17 17 16 16 16 16 16 15 15 15 14 13 13 13 13 12 12
28 27 27 26 26 26 26 26 25 25 24 23 23 23 22 22 22 22 22 22 21 21 20 20 20 20 19 19 19 18 18 18 18 17 17 17 17 16 16 15 15 15 14
29 28 28 28 27 27 27 27 27 26 25 25 24 23 24 24 24 24 23 23 23 22 22 22 22 22 22 21 21 20 20 19 19 20 19 19 19 19 18 18 17 17 17
31 30 30 29 29 29 29 29 28 28 27 27 26 25 25 25 25 25 25 24 24 23 23 23 23 24 24 23 23 23 22 22 22 22 21 21 21 21 20 20 19 19 19
33 32 32 31 31 31 31 30 30 29 29 29 28 28 27 27 27 26 26 26 26 25 24 24 24 25 25 25 25 25 24 24 24 24 24 23 23 23 22 22 22 21 21
36 35 34 34 34 33 33 32 31 31 31 31 31 29 29 29 29 28 28 28 28 27 27 26 26 26 26 27 27 27 27 26 26 25 25 25 25 25 25 24 24 24 24
37 37 36 36 36 36 35 35 33 33 33 32 32 32 31 31 31 30 30 30 29 29 29 29 28 28 27 27 28 28 28 28 28 27 27 27 27 27 27 27 26 26 26
39 39 39 38 38 38 37 36 36 35 35 34 34 33 33 33 32 32 32 32 31 31 30 31 31 30 30 29 29 29 29 30 29 29 29 29 29 29 29 29 29 28 28
40 40 41 41 40 40 39 38 38 37 37 37 36 36 35 35 34 34 34 34 33 33 33 32 32 33 32 31 31 31 31 31 31 31 31 31 32 32 32 32 32 31 31
42 42 41 41 41 41 41 41 40 39 39 38 38 38 37 36 37 36 36 35 36 35 35 34 33 34 33 33 33 32 32 33 33 33 33 33 33 34 34 34 34 34 34
43 43 42 42 42 42 42 42 42 42 41 40 40 40 39 39 38 39 38 38 37 37 37 37 36 36 35 35 35 35 34 34 35 35 35 35 35 35 35 35 35 36 36
44 44 44 45 45 44 44 44 44 44 44 43 43 42 42 41 41 40 41 40 40 39 39 39 38 38 37 37 37 36 36 36 36 36 36 37 37 37 37 37 37 37 37
45 46 46 46 46 46 46 46 46 46 46 45 45 44 44 43 43 43 43 43 42 42 41 41 41 40 40 40 39 39 39 38 38 38 38 38 38 39 39 39 38 38 38
45 45 46 47 47 47 47 47 47 47 48 47 47 47 46 45 45 45 45 45 44 44 43 43 43 42 42 42 42 41 41 40 39 39 39 39 40 41 41 40 40 40 39
46 46 46 46 47 47 48 48 49 49 49 48 48 48 48 47 47 47 47 46 46 46 46 45 45 45 45 44 44 44 43 42 42 41 41 40 41 41 42 42 42 42 41
47 47 48 48 48 48 49 49 49 49 49 49 49 49 49 48 48 48 48 48 48 48 48 48 48 48 48 47 47 46 46 45 44 43 43 43 43 43 43 44 44 44 44
47 48 49 50 50 50 50 50 50 50 50 50 50 50 50 50 50 50 50 50 50 50 50 50 51 51 50 49 49 48 48 47 47 46 45 45 45 45 45 45 45 45 45
46 47 49 50 50 51 51 51 51 51 52 52 52 52 52 51 52 52 52 52 52 52 52 52 53 52 52 52 51 51 50 49 49 49 48 47 47 47 46 47 47 47 47
46 47 48 49 50 51 52 52 53 53 53 53 53 53 53 53 53 53 53 53 54 54 55 55 54 54 54 54 53 53 53 52 51 51 50 50 49 49 48 48 49 49 49
Wind_Direction
241 240 239 239 238 237 234 236 233 231 228 227 225 223 221 220 218 217 219 219 218 216 216 217 217 213 212 211 207 206 209 209 206 204 204 202 199 195 187 178 173 171 148
241 239 240 240 239 237 237 236 233 230 229 228 227 225 223 222 220 220 220 220 218 218 221 222 220 216 216 216 215 215 217 219 217 216 212 209 209 208 203 199 199 205 222
242 241 242 241 241 240 239 237 235 232 230 229 228 228 225 224 224 223 223 222 221 222 223 223 223 220 221 223 222 224 226 227 226 224 221 219 220 221 221 221 224 230 241
244 243 242 243 242 242 241 239 238 235 234 233 232 231 230 227 225 225 225 223 223 225 226 226 227 226 225 226 228 230 232 234 235 231 228 228 229 232 233 232 236 241 246
244 244 243 243 242 243 241 240 238 237 236 235 233 233 234 231 228 227 228 226 226 227 228 229 229 229 230 231 233 234 235 237 239 237 234 234 236 238 239 239 242 246 250
244 244 244 242 242 242 241 239 236 236 235 235 235 236 236 236 235 234 233 232 231 231 232 231 230 231 234 235 238 238 237 238 241 241 241 240 239 239 241 243 247 250 253
244 243 243 242 241 241 240 238 236 236 235 235 235 236 238 239 239 239 238 239 237 236 236 235 235 236 238 240 241 242 241 242 243 243 243 244 242 241 243 246 249 253 255
244 243 243 242 241 240 239 238 238 237 236 237 237 237 239 240 241 243 243 242 242 241 241 241 240 241 242 244 244 246 246 245 244 245 245 246 244 244 245 248 251 253 256
244 244 243 243 242 241 239 239 239 238 237 238 239 240 241 242 243 243 245 243 243 244 245 245 245 245 246 247 248 249 250 250 247 247 248 248 248 248 248 251 253 254 256
244 244 244 244 243 241 240 240 240 239 239 240 240 242 242 243 243 244 245 245 244 245 247 247 247 248 249 249 249 250 252 253 251 249 249 250 251 251 251 252 254 256 257
245 244 244 244 244 243 242 242 241 241 242 242 242 243 244 245 246 245 245 246 246 247 248 248 249 250 250 251 252 252 253 254 253 252 251 251 252 253 253 253 255 256 258
246 245 244 244 244 244 244 243 243 243 244 244 244 245 245 246 247 246 246 246 247 248 249 250 251 251 252 253 253 253 255 256 256 255 254 252 252 253 255 256 256 257 258
247 246 246 245 244 244 244 244 244 244 245 245 246 246 247 246 246 247 247 247 248 249 250 251 252 253 253 254 255 254 255 256 256 256 256 254 254 255 256 257 257 258 259
247 247 247 247 246 245 245 245 245 245 246 246 246 247 247 247 247 247 248 248 249 250 251 252 253 254 254 255 256 256 256 256 256 256 257 255 254 256 258 258 258 259 259
247 248 248 248 247 246 246 245 245 245 246 246 247 247 248 249 249 249 249 249 250 251 252 253 253 254 255 256 257 257 258 258 258 257 257 257 256 257 258 258 259 259 260
247 248 248 248 248 247 246 246 246 246 247 247 248 248 249 249 250 251 250 250 252 253 255 255 255 255 256 257 258 259 259 259 259 259 259 258 258 258 258 258 259 260 260
247 247 248 247 247 247 247 247 247 247 247 248 249 251 251 250 250 251 252 252 253 254 256 256 257 257 257 258 259 260 260 261 261 260 260 260 259 259 259 259 260 261 261
248 248 248 247 247 247 247 247 247 248 248 249 249 251 252 252 252 252 253 254 254 255 256 257 258 258 258 259 260 260 261 261 262 262 261 260 260 260 260 260 261 261 262
249 248 248 248 248 248 248 248 248 249 249 250 250 251 252 253 253 253 254 256 256 256 257 257 257 258 259 260 261 262 262 262 262 262 262 261 260 260 260 260 261 262 262
250 249 249 249 248 248 248 248 248 249 250 250 251 251 252 253 253 254 255 256 256 257 257 257 257 258 259 260 261 262 263 263 263 263 263 263 261 261 261 260 261 262 262
250 250 250 249 249 249 248 249 248 249 250 250 250 251 251 252 254 254 255 256 257 257 258 258 258 258 259 259 260 261 262 263 263 264 263 263 262 261 261 262 262 262 262
251 250 250 250 249 249 249 249 249 249 249 250 250 251 252 252 254 254 255 256 256 257 258 258 258 259 259 260 261 261 261 262 262 263 264 264 264 263 262 262 262 263 263
251 251 251 251 250 250 249 249 249 250 250 250 251 252 253 253 254 255 255 255 256 257 258 258 258 259 259 260 261 261 261 261 262 263 264 264 264 264 263 263 263 263 263
252 251 251 251 250 250 250 250 250 250 250 250 251 252 253 253 254 255 256 256 257 258 259 259 259 259 260 260 261 261 262 262 263 263 264 264 264 264 264 264 264 264 264
254 253 252 251 251 251 251 250 250 250 251 251 251 252 253 254 254 255 256 257 257 258 258 259 259 260 260 260 260 262 263 264 264 264 264 264 264 264 265 264 263 263 264
255 254 254 253 252 252 251 251 251 251 251 251 252 252 253 254 255 255 257 258 258 258 259 259 259 259 260 260 261 262 263 263 264 264 265 264 264 264 264 264 263 263 263
Height
5822 5822 5824 5825 5827 5828 5829 5830 5832 5833 5834 5835 5836 5837 5838 5839 5841 5842 5843 5844 5845 5847 5848 5849 5850 5850 5851 5852 5853 5854 5855 5856 5856 5857 5858 5859 5859 5860 5860 5861 5862 5862 5862
5819 5820 5821 5822 5824 5825 5826 5828 5829 5830 5832 5833 5834 5835 5836 5838 5839 5840 5842 5843 5844 5845 5846 5847 5848 5849 5850 5851 5852 5853 5854 5855 5856 5857 5857 5858 5859 5860 5860 5861 5861 5862 5862
5815 5817 5818 5819 5821 5822 5824 5825 5826 5828 5829 5831 5832 5833 5834 5836 5837 5838 5840 5841 5842 5844 5845 5846 5847 5848 5849 5850 5851 5852 5853 5854 5855 5856 5857 5857 5858 5859 5860 5860 5861 5861 5862
5812 5813 5815 5816 5818 5819 5821 5822 5823 5825 5826 5828 5830 5831 5832 5833 5835 5836 5838 5839 5840 5842 5843 5844 5846 5847 5848 5849 5850 5851 5852 5853 5854 5855 5856 5856 5857 5858 5859 5859 5860 5861 5861
5808 5810 5811 5813 5814 5816 5818 5819 5821 5822 5824 5825 5827 5828 5830 5831 5832 5834 5835 5836 5838 5839 5841 5842 5844 5845 5846 5847 5848 5849 5850 5851 5852 5853 5854 5855 5856 5857 5857 5858 5859 5859 5860
5804 5806 5807 5809 5811 5812 5814 5816 5817 5819 5821 5822 5824 5825 5827 5828 5830 5831 5833 5834 5836 5837 5838 5840 5841 5843 5844 5845 5846 5847 5848 5849 5850 5851 5853 5853 5854 5855 5856 5857 5857 5858 5859
5800 5802 5803 5805 5807 5808 5810 5812 5814 5815 5817 5819 5821 5822 5823 5825 5827 5828 5830 5831 5833 5834 5836 5837 5838 5840 5841 5842 5843 5845 5846 5847 5848 5849 5850 5851 5852 5853 5854 5855 5856 5856 5857
5795 5797 5799 5801 5802 5804 5806 5808 5810 5812 5813 5815 5817 5818 5820 5822 5823 5825 5826 5828 5829 5831 5833 5834 5835 5837 5838 5839 5840 5842 5843 5844 5845 5846 5848 5849 5850 5851 5852 5852 5853 5854 5855
5790 5792 5794 5796 5798 5800 5802 5803 5805 5807 5809 5811 5813 5814 5816 5818 5820 5821 5823 5824 5826 5827 5829 5830 5832 5833 5835 5836 5837 5838 5840 5841 5842 5843 5845 5846 5847 5848 5849 5850 5851 5852 5852
5785 5787 5789 5791 5793 5795 5797 5799 5801 5803 5805 5807 5808 5810 5812 5814 5815 5817 5819 5820 5822 5823 5825 5827 5828 5829 5831 5832 5833 5835 5836 5837 5838 5840 5841 5842 5843 5844 5845 5846 5847 5848 5849
5779 5781 5783 5785 5787 5789 5791 5793 5796 5798 5800 5802 5804 5806 5807 5809 5811 5813 5814 5816 5817 5819 5821 5822 5824 5825 5827 5828 5829 5831 5832 5833 5834 5836 5837 5838 5839 5840 5841 5842 5843 5844 5845
5772 5775 5777 5779 5781 5783 5786 5788 5790 5792 5794 5796 5798 5800 5802 5804 5806 5808 5809 5811 5813 5814 5816 5817 5819 5820 5822 5823 5825 5826 5827 5829 5830 5831 5832 5833 5835 5836 5837 5838 5839 5840 5841
5765 5768 5770 5773 5775 5777 5779 5782 5784 5787 5789 5791 5793 5794 5796 5798 5800 5802 5804 5806 5807 5809 5811 5813 5814 5815 5817 5818 5819 5821 5822 5823 5825 5826 5827 5828 5830 5831 5832 5833 5834 5835 5836
5758 5761 5763 5765 5768 5770 5773 5775 5778 5780 5782 5784 5786 5788 5790 5792 5794 5796 5798 5800 5801 5803 5805 5807 5808 5810 5811 5812 5814 5815 5816 5818 5819 5820 5821 5823 5824 5825 5826 5827 5829 5830 5831
5750 5752 5755 5757 5760 5762 5765 5768 5770 5773 5775 5777 5779 5781 5783 5786 5787 5790 5792 5793 5795 5797 5799 5800 5802 5803 5805 5806 5807 5809 5810 5811 5813 5814 5815 5816 5818 5819 5820 5821 5823 5824 5825
5741 5744 5747 5749 5752 5754 5757 5760 5762 5765 5768 5770 5772 5774 5776 5778 5780 5782 5784 5786 5788 5790 5792 5794 5795 5797 5798 5800 5801 5802 5803 5805 5806 5807 5809 5810 5811 5812 5813 5815 5816 5817 5818
5732 5735 5737 5740 5743 5746 5748 5751 5754 5757 5760 5762 5764 5766 5768 5771 5773 5775 5777 5779 5781 5782 5784 5786 5788 5789 5791 5792 5794 5795 5796 5797 5799 5800 5801 5802 5803 5805 5806 5807 5808 5810 5811
5722 5725 5728 5731 5734 5736 5739 5742 5745 5748 5751 5753 5756 5758 5760 5762 5764 5766 5768 5770 5772 5774 5776 5778 5780 5781 5783 5784 5786 5787 5788 5790 5791 5792 5793 5794 5796 5797 5798 5799 5800 5802 5803
5712 5715 5718 5721 5724 5726 5729 5732 5735 5738 5741 5744 5746 5749 5751 5753 5755 5757 5760 5761 5764 5766 5767 5769 5771 5773 5774 5776 5777 5779 5780 5781 5782 5783 5784 5786 5787 5788 5789 5791 5792 5793 5794
5701 5704 5707 5710 5713 5716 5719 5722 5725 5728 5731 5733 5736 5739 5741 5744 5746 5748 5750 5752 5754 5756 5758 5760 5762 5763 5765 5766 5768 5769 5770 5772 5773 5774 5775 5776 5777 5779 5780 5781 5783 5784 5785
5690 5692 5696 5699 5702 5705 5708 5711 5714 5717 5720 5723 5725 5728 5731 5733 5735 5738 5740 5742 5744 5746 5748 5750 5752 5753 5755 5756 5758 5759 5761 5762 5763 5764 5765 5766 5768 5769 5770 5772 5773 5775 5776
5678 5681 5684 5687 5690 5693 5696 5699 5702 5705 5708 5711 5714 5717 5719 5722 5724 5727 5729 5731 5733 5735 5737 5739 5741 5743 5744 5746 5747 5749 5751 5753 5753 5755 5756 5757 5758 5759 5760 5762 5763 5764 5766
5666 5669 5672 5675 5678 5681 5684 5687 5690 5693 5696 5699 5702 5705 5708 5710 5713 5715 5717 5720 5722 5724 5726 5728 5730 5731 5733 5735 5736 5738 5739 5741 5743 5745 5745 5746 5747 5748 5750 5751 5752 5753 5755
5654 5656 5659 5662 5665 5668 5671 5674 5677 5681 5684 5687 5690 5692 5695 5698 5700 5703 5705 5708 5710 5712 5714 5716 5717 5719 5721 5722 5724 5726 5727 5729 5731 5733 5734 5735 5736 5737 5738 5739 5740 5741 5742
5642 5644 5646 5649 5651 5654 5658 5661 5664 5667 5670 5673 5676 5679 5682 5685 5687 5689 5692 5694 5696 5699 5701 5702 5704 5706 5708 5710 5712 5713 5715 5716 5718 5720 5722 5723 5724 5725 5726 5727 5728 5729 5730
5630 5632 5634 5636 5638 5641 5644 5647 5650 5654 5657 5660 5663 5666 5669 5671 5673 5676 5678 5680 5682 5685 5687 5689 5691 5692 5694 5696 5698 5700 5702 5703 5705 5706 5708 5710 5712 5713 5713 5714 5715 5717 5718